F/V Roger Christian3 — FUFL — position and weather

sailwx.info

Track history (hours):
 
Tides and Currents Weather Stations Pressure Air Temp Water Temp Dewpoint Dewpoint Depression Visibility Wind Speed Wind Dir Waves Ship Positions

F/V Roger Christian3

Last reported at 2014-Jul-24 12:11 UTC. Time now 2014-Jul-24 13:01 UTC.
Position N 43°17' E 003°54'.

Length 24 m.

Type: Fishing. MMSI: 228173800.

Date/timePositionNaut miles runAvg speedWind from/ knotsBaromVisibWave heightAir tempDewpointWater temp
2014-Jul-24 12:11N 43°17' E 003°54'3 4.3
2014-Jul-24 11:30N 43°16' E 003°58'5 4.4
2014-Jul-24 10:28N 43°13' E 004°04'4 3.8
2014-Jul-24 09:31N 43°12' E 004°08'4 3.9
2014-Jul-24 08:32N 43°09' E 004°11'5 4.5
2014-Jul-24 07:29N 43°04' E 004°13'3 3.4
2014-Jul-24 06:33N 43°02' E 004°11'3 3.2
2014-Jul-24 05:31N 43°02' E 004°06'4 4.2
2014-Jul-24 04:33N 43°03' E 004°01'5 4.5
2014-Jul-24 03:32N 43°07' E 003°57'4 4.5
2014-Jul-24 02:33N 43°11' E 003°55'8 8.1
2014-Jul-24 01:32N 43°18' E 003°48'8 7.6
2014-Jul-24 00:30N 43°24' E 003°42'0 0.0
2014-Jul-23 23:32N 43°24' E 003°42'0 0.0
2014-Jul-23 14:26N 43°24' E 003°42'9 9.9
2014-Jul-23 13:30N 43°19' E 003°53'4 4.4
2014-Jul-23 12:32N 43°17' E 003°58'5 4.6
2014-Jul-23 11:29N 43°14' E 004°04'4 4.5
2014-Jul-23 10:31N 43°12' E 004°09'3 3.1
2014-Jul-23 09:30N 43°10' E 004°12'5 4.5
2014-Jul-23 08:20N 43°05' E 004°15'4 4.4
2014-Jul-23 07:27N 43°02' E 004°17'4 4.0
2014-Jul-23 06:29N 43°00' E 004°12'4 3.4
2014-Jul-23 05:27N 43°01' E 004°07'4 4.3
2014-Jul-23 04:32N 43°02' E 004°02'5 4.3
2014-Jul-23 03:18N 43°05' E 003°56'4 4.5
2014-Jul-23 02:18N 43°09' E 003°53'910.8
2014-Jul-23 01:26N 43°17' E 003°47'8 6.8
2014-Jul-23 00:18N 43°24' E 003°42'0 0.0
2014-Jul-22 23:14N 43°24' E 003°42'15 1.4
2014-Jul-22 12:15N 43°09' E 003°42'3 4.5
2014-Jul-22 11:33N 43°06' E 003°43'4 4.3
2014-Jul-22 10:33N 43°02' E 003°47'3 2.4
2014-Jul-22 09:28N 43°02' E 003°50'4 4.5
2014-Jul-22 08:32N 43°02' E 003°56'6 5.6
2014-Jul-22 07:27N 43°02' E 004°04'2 2.8
2014-Jul-22 06:33N 43°02' E 004°07'29 2.7
2014-Jul-21 20:08N 43°24' E 003°42'2 0.4
2014-Jul-21 14:28N 43°22' E 003°42'8 8.9
2014-Jul-21 13:33N 43°14' E 003°46'14 3.5
2014-Jul-21 09:27N 43°02' E 003°58'8 4.1
2014-Jul-21 07:24N 43°04' E 004°09'4 4.0
2014-Jul-21 06:21N 43°06' E 004°14'3 3.1
2014-Jul-21 05:29N 43°07' E 004°11'4 4.4
2014-Jul-21 04:33N 43°08' E 004°06'5 4.4
2014-Jul-21 03:26N 43°09' E 003°59'4 4.4
2014-Jul-21 02:29N 43°10' E 003°54'7 7.9
2014-Jul-21 01:33N 43°16' E 003°47'9 2.6
2014-Jul-20 22:04N 43°24' E 003°42'0 0.0
2014-Jul-20 20:21N 43°24' E 003°42'0 0.0
2014-Jul-20 19:29N 43°24' E 003°42'0 0.0
2014-Jul-20 13:26N 43°24' E 003°42'0 0.0
2014-Jul-20 12:31N 43°24' E 003°42'0 0.0
2014-Jul-20 07:08N 43°24' E 003°42'0 0.0
2014-Jul-20 06:30N 43°24' E 003°42'0 0.0
2014-Jul-19 14:24N 43°24' E 003°42'0 0.0
2014-Jul-19 13:32N 43°24' E 003°42'0 0.0
2014-Jul-18 14:33N 43°24' E 003°42'21 5.3
2014-Jul-18 10:33N 43°13' E 004°07'4 3.8
2014-Jul-18 09:33N 43°11' E 004°11'4 4.4
2014-Jul-18 08:33N 43°07' E 004°14'5 4.5
2014-Jul-18 07:33N 43°03' E 004°14'5 4.8
2014-Jul-18 06:30N 43°01' E 004°07'4 3.5
2014-Jul-18 05:29N 43°01' E 004°03'4 4.4
2014-Jul-18 04:33N 43°02' E 003°57'4 4.2
2014-Jul-18 03:30N 43°04' E 003°51'4 4.5
2014-Jul-18 02:33N 43°08' E 003°50'10 9.9
2014-Jul-18 01:33N 43°17' E 003°45'8 0.8
2014-Jul-17 15:30N 43°24' E 003°42'3 2.5
2014-Jul-17 14:11N 43°22' E 003°45'812.0
2014-Jul-17 13:33N 43°18' E 003°55'23 4.3
2014-Jul-17 08:09N 43°04' E 004°19'6 3.9
2014-Jul-17 06:33N 43°01' E 004°11'3 3.4
2014-Jul-17 05:32N 43°01' E 004°07'5 4.8
2014-Jul-17 04:32N 43°02' E 004°00'4 4.2
2014-Jul-17 03:30N 43°04' E 003°55'4 4.6
2014-Jul-17 02:33N 43°08' E 003°53'1010.0
2014-Jul-17 01:30N 43°17' E 003°46'8 7.2
2014-Jul-17 00:27N 43°24' E 003°42'29 1.8
2014-Jul-16 08:29N 43°06' E 004°14'7 3.4
2014-Jul-16 06:27N 43°00' E 004°09'5 3.5
2014-Jul-16 05:04N 43°01' E 004°02'2 4.3
2014-Jul-16 04:34N 43°02' E 003°59'4 4.4
2014-Jul-16 03:32N 43°06' E 003°56'5 4.7
2014-Jul-16 02:28N 43°10' E 003°52'9 9.9
2014-Jul-16 01:33N 43°18' E 003°46'7 1.3
2014-Jul-15 20:12N 43°24' E 003°42'0 0.0
2014-Jul-15 17:27N 43°24' E 003°42'0 0.2
2014-Jul-15 15:33N 43°24' E 003°42'0 0.3
2014-Jul-15 14:33N 43°24' E 003°42'8 8.0
2014-Jul-15 13:33N 43°18' E 003°49'5 4.4
2014-Jul-15 12:30N 43°16' E 003°55'5 4.3
2014-Jul-15 11:21N 43°11' E 003°58'4 4.6
2014-Jul-15 10:29N 43°07' E 003°59'3 3.2
2014-Jul-15 09:34N 43°05' E 003°57'4 4.1
2014-Jul-15 08:33N 43°01' E 003°56'9 4.4
2014-Jul-15 06:25N 43°00' E 004°09'3 3.5
2014-Jul-15 05:30N 43°00' E 004°05'4 4.5
2014-Jul-15 04:33N 43°01' E 003°59'5 4.4
2014-Jul-15 03:27N 43°04' E 003°54'4 4.5
2014-Jul-15 02:31N 43°08' E 003°51'10 9.8
2014-Jul-15 01:30N 43°17' E 003°46'8 6.6
2014-Jul-15 00:21N 43°24' E 003°42'0 0.0
2014-Jul-14 23:28N 43°24' E 003°42'0 0.0
2014-Jul-14 22:10N 43°24' E 003°42'0 0.0
2014-Jul-14 20:29N 43°24' E 003°42'0 0.0
2014-Jul-14 14:13N 43°24' E 003°42'0 0.0
2014-Jul-14 13:08N 43°24' E 003°42'  
Track history (hours):
 
Tides and Currents Weather Stations Pressure Air Temp Water Temp Dewpoint Dewpoint Depression Visibility Wind Speed Wind Dir Waves Ship Positions

F/V Roger Christian3

Last reported at 2014-Jul-24 12:11 UTC. Time now 2014-Jul-24 13:01 UTC.
Position N 43°17' E 003°54'.

Length 24 m.

Type: Fishing. MMSI: 228173800.

Date/timePositionNaut miles runAvg speedWind from/ knotsBaromVisibWave heightAir tempDewpointWater temp
2014-Jul-24 12:11N 43°17' E 003°54'3 4.3
2014-Jul-24 11:30N 43°16' E 003°58'5 4.4
2014-Jul-24 10:28N 43°13' E 004°04'4 3.8
2014-Jul-24 09:31N 43°12' E 004°08'4 3.9
2014-Jul-24 08:32N 43°09' E 004°11'5 4.5
2014-Jul-24 07:29N 43°04' E 004°13'3 3.4
2014-Jul-24 06:33N 43°02' E 004°11'3 3.2
2014-Jul-24 05:31N 43°02' E 004°06'4 4.2
2014-Jul-24 04:33N 43°03' E 004°01'5 4.5
2014-Jul-24 03:32N 43°07' E 003°57'4 4.5
2014-Jul-24 02:33N 43°11' E 003°55'8 8.1
2014-Jul-24 01:32N 43°18' E 003°48'8 7.6
2014-Jul-24 00:30N 43°24' E 003°42'0 0.0
2014-Jul-23 23:32N 43°24' E 003°42'0 0.0
2014-Jul-23 14:26N 43°24' E 003°42'9 9.9
2014-Jul-23 13:30N 43°19' E 003°53'4 4.4
2014-Jul-23 12:32N 43°17' E 003°58'5 4.6
2014-Jul-23 11:29N 43°14' E 004°04'4 4.5
2014-Jul-23 10:31N 43°12' E 004°09'3 3.1
2014-Jul-23 09:30N 43°10' E 004°12'5 4.5
2014-Jul-23 08:20N 43°05' E 004°15'4 4.4
2014-Jul-23 07:27N 43°02' E 004°17'4 4.0
2014-Jul-23 06:29N 43°00' E 004°12'4 3.4
2014-Jul-23 05:27N 43°01' E 004°07'4 4.3
2014-Jul-23 04:32N 43°02' E 004°02'5 4.3
2014-Jul-23 03:18N 43°05' E 003°56'4 4.5
2014-Jul-23 02:18N 43°09' E 003°53'910.8
2014-Jul-23 01:26N 43°17' E 003°47'8 6.8
2014-Jul-23 00:18N 43°24' E 003°42'0 0.0
2014-Jul-22 23:14N 43°24' E 003°42'15 1.4
2014-Jul-22 12:15N 43°09' E 003°42'3 4.5
2014-Jul-22 11:33N 43°06' E 003°43'4 4.3
2014-Jul-22 10:33N 43°02' E 003°47'3 2.4
2014-Jul-22 09:28N 43°02' E 003°50'4 4.5
2014-Jul-22 08:32N 43°02' E 003°56'6 5.6
2014-Jul-22 07:27N 43°02' E 004°04'2 2.8
2014-Jul-22 06:33N 43°02' E 004°07'29 2.7
2014-Jul-21 20:08N 43°24' E 003°42'2 0.4
2014-Jul-21 14:28N 43°22' E 003°42'8 8.9
2014-Jul-21 13:33N 43°14' E 003°46'14 3.5
2014-Jul-21 09:27N 43°02' E 003°58'8 4.1
2014-Jul-21 07:24N 43°04' E 004°09'4 4.0
2014-Jul-21 06:21N 43°06' E 004°14'3 3.1
2014-Jul-21 05:29N 43°07' E 004°11'4 4.4
2014-Jul-21 04:33N 43°08' E 004°06'5 4.4
2014-Jul-21 03:26N 43°09' E 003°59'4 4.4
2014-Jul-21 02:29N 43°10' E 003°54'7 7.9
2014-Jul-21 01:33N 43°16' E 003°47'9 2.6
2014-Jul-20 22:04N 43°24' E 003°42'0 0.0
2014-Jul-20 20:21N 43°24' E 003°42'0 0.0
2014-Jul-20 19:29N 43°24' E 003°42'0 0.0
2014-Jul-20 13:26N 43°24' E 003°42'0 0.0
2014-Jul-20 12:31N 43°24' E 003°42'0 0.0
2014-Jul-20 07:08N 43°24' E 003°42'0 0.0
2014-Jul-20 06:30N 43°24' E 003°42'0 0.0
2014-Jul-19 14:24N 43°24' E 003°42'0 0.0
2014-Jul-19 13:32N 43°24' E 003°42'0 0.0
2014-Jul-18 14:33N 43°24' E 003°42'21 5.3
2014-Jul-18 10:33N 43°13' E 004°07'4 3.8
2014-Jul-18 09:33N 43°11' E 004°11'4 4.4
2014-Jul-18 08:33N 43°07' E 004°14'5 4.5
2014-Jul-18 07:33N 43°03' E 004°14'5 4.8
2014-Jul-18 06:30N 43°01' E 004°07'4 3.5
2014-Jul-18 05:29N 43°01' E 004°03'4 4.4
2014-Jul-18 04:33N 43°02' E 003°57'4 4.2
2014-Jul-18 03:30N 43°04' E 003°51'4 4.5
2014-Jul-18 02:33N 43°08' E 003°50'10 9.9
2014-Jul-18 01:33N 43°17' E 003°45'8 0.8
2014-Jul-17 15:30N 43°24' E 003°42'3 2.5
2014-Jul-17 14:11N 43°22' E 003°45'812.0
2014-Jul-17 13:33N 43°18' E 003°55'23 4.3
2014-Jul-17 08:09N 43°04' E 004°19'6 3.9
2014-Jul-17 06:33N 43°01' E 004°11'3 3.4
2014-Jul-17 05:32N 43°01' E 004°07'5 4.8
2014-Jul-17 04:32N 43°02' E 004°00'4 4.2
2014-Jul-17 03:30N 43°04' E 003°55'4 4.6
2014-Jul-17 02:33N 43°08' E 003°53'1010.0
2014-Jul-17 01:30N 43°17' E 003°46'8 7.2
2014-Jul-17 00:27N 43°24' E 003°42'29 1.8
2014-Jul-16 08:29N 43°06' E 004°14'7 3.4
2014-Jul-16 06:27N 43°00' E 004°09'5 3.5
2014-Jul-16 05:04N 43°01' E 004°02'2 4.3
2014-Jul-16 04:34N 43°02' E 003°59'4 4.4
2014-Jul-16 03:32N 43°06' E 003°56'5 4.7
2014-Jul-16 02:28N 43°10' E 003°52'9 9.9
2014-Jul-16 01:33N 43°18' E 003°46'7 1.3
2014-Jul-15 20:12N 43°24' E 003°42'0 0.0
2014-Jul-15 17:27N 43°24' E 003°42'0 0.2
2014-Jul-15 15:33N 43°24' E 003°42'0 0.3
2014-Jul-15 14:33N 43°24' E 003°42'8 8.0
2014-Jul-15 13:33N 43°18' E 003°49'5 4.4
2014-Jul-15 12:30N 43°16' E 003°55'5 4.3
2014-Jul-15 11:21N 43°11' E 003°58'4 4.6
2014-Jul-15 10:29N 43°07' E 003°59'3 3.2
2014-Jul-15 09:34N 43°05' E 003°57'4 4.1
2014-Jul-15 08:33N 43°01' E 003°56'9 4.4
2014-Jul-15 06:25N 43°00' E 004°09'3 3.5
2014-Jul-15 05:30N 43°00' E 004°05'4 4.5
2014-Jul-15 04:33N 43°01' E 003°59'5 4.4
2014-Jul-15 03:27N 43°04' E 003°54'4 4.5
2014-Jul-15 02:31N 43°08' E 003°51'10 9.8
2014-Jul-15 01:30N 43°17' E 003°46'8 6.6
2014-Jul-15 00:21N 43°24' E 003°42'0 0.0
2014-Jul-14 23:28N 43°24' E 003°42'0 0.0
2014-Jul-14 22:10N 43°24' E 003°42'0 0.0
2014-Jul-14 20:29N 43°24' E 003°42'0 0.0
2014-Jul-14 14:13N 43°24' E 003°42'0 0.0
2014-Jul-14 13:08N 43°24' E 003°42'  

Dump ship's entire track history